Flag for Afghanistan Weather past 2 weeks in Mazari Sharif, Afghanistan

Now
45 °F

Passing clouds.


Feels Like: 40 °F
Forecast: 44 / 57 °F
Wind: 9 mph from Northeast

Location: Termez Airport

Current Time: Jan 30, 2015 at 8:48:22 PM

Latest Report: Jan 30, 2015 at 8:00 PM


Visibility: N/A

Pressure: 30.15 "Hg

Humidity: 76%

Dew point: 37 °F

Location of Mazari SharifLocation

Historic Weather in Mazari Sharif — Graph

°F

Mazari Sharif temperature yesterday

Maximum temperature yesterday: 54 °F (at 2:00 PM)
Minimum temperature yesterday: 36 °F (at 1:30 AM)
Average temperature yesterday: 44 °F

Past Weeks' High & Low Weather Summary

 TemperatureHumidityPressure
High64 °F (Jan 16, 1:30 PM)100% (Jan 15, 8:30 PM)30.57 "Hg (Jan 15, 8:30 PM)
Low27 °F (Jan 27, 4:30 AM)21% (Jan 16, 1:30 PM)30.07 "Hg (Jan 16, 3:00 PM)
Average40 °F80%30.27 "Hg
* Reported Jan 15 7:30 PM — Jan 30 7:30 PM, Mazari Sharif, Weather by CustomWeather, © 2014

Note: Actual official high and low records may vary slightly from our data, if they occured in-between our weather recording intervals... More about our weather records

Advertising

Mazari Sharif weather history for previous 24 hours

 ConditionsComfort  
Time TempWeatherWind HumidityBarometerVisibility
7:30 PM
Jan 30
45 °FPassing clouds.8 mph76%30.15 "HgN/A
7:00 PM45 °FMostly cloudy.9 mph81%30.15 "HgN/A
6:30 PM46 °FMostly cloudy.5 mph76%30.15 "HgN/A
6:00 PM46 °FMostly cloudy.7 mph76%30.15 "HgN/A
5:30 PM46 °FSprinkles. Mostly cloudy.9 mph76%30.12 "HgN/A
5:00 PM46 °FMostly cloudy.10 mph82%30.15 "HgN/A
4:30 PM46 °FMostly cloudy.13 mph82%30.15 "HgN/A
4:00 PM46 °FSprinkles. Mostly cloudy.14 mph76%30.15 "HgN/A
3:30 PM46 °FSprinkles. Mostly cloudy.12 mph76%30.15 "HgN/A
3:00 PM48 °FSprinkles. Mostly cloudy.10 mph66%30.18 "HgN/A
2:30 PM50 °FSprinkles. Mostly cloudy.14 mph67%30.15 "HgN/A
2:00 PM50 °FMostly cloudy.18 mph62%30.15 "HgN/A
1:30 PM50 °FMostly cloudy.18 mph58%30.15 "HgN/A
1:00 PM50 °FMostly cloudy.15 mph62%30.18 "HgN/A
12:30 PM50 °FMostly cloudy.16 mph62%30.18 "HgN/A
12:00 PM48 °FMostly cloudy.15 mph66%30.21 "HgN/A
11:30 AM48 °FMostly cloudy.13 mph71%30.21 "HgN/A
11:00 AM48 °FMostly cloudy.9 mph66%30.21 "HgN/A
10:30 AM46 °FSprinkles. Overcast.8 mph82%30.21 "HgN/A
10:00 AM45 °FSprinkles. Overcast.7 mph81%30.21 "Hg6 mi
9:30 AM43 °FSprinkles. Fog.6 mph81%30.21 "Hg3 mi
9:00 AM43 °FSprinkles. Overcast.6 mph76%30.21 "Hg6 mi
8:30 AM41 °FSprinkles. Overcast.7 mph76%30.18 "Hg4 mi
8:00 AM41 °FSprinkles. Overcast.6 mph76%30.15 "HgN/A
7:30 AM41 °FSprinkles. Overcast.3 mph76%30.15 "HgN/A
7:00 AM41 °FSprinkles. Overcast.7 mph70%30.15 "HgN/A
6:30 AM41 °FMostly cloudy.5 mph70%30.12 "HgN/A
6:00 AM41 °FPartly cloudy.6 mph70%30.12 "HgN/A
5:30 AM39 °FPartly cloudy.6 mph75%30.12 "HgN/A
5:00 AM39 °FClear.5 mph75%30.12 "Hg10 mi
4:30 AM39 °FPassing clouds.1 mph75%30.12 "HgN/A
4:00 AM41 °FClear.2 mph70%30.12 "Hg10 mi
3:30 AM39 °FClear.3 mph70%30.12 "Hg10 mi
3:00 AM41 °FPassing clouds.2 mph70%30.12 "HgN/A
2:30 AM41 °FPassing clouds.5 mph70%30.12 "HgN/A
2:00 AM43 °FPassing clouds.3 mph61%30.12 "HgN/A
1:30 AM45 °FClear.9 mph57%30.09 "Hg10 mi
1:00 AM45 °FClear.12 mph57%30.09 "Hg10 mi
12:30 AM45 °FClear.9 mph57%30.12 "Hg10 mi
12:00 AM45 °FClear.12 mph57%30.12 "Hg10 mi
11:30 PM
Jan 29
45 °FClear.8 mph61%30.12 "Hg10 mi
11:00 PM43 °FPassing clouds.5 mph71%30.12 "HgN/A
10:30 PM43 °FPassing clouds.7 mph71%30.12 "HgN/A
10:00 PM45 °FPartly cloudy.8 mph66%30.12 "HgN/A
9:30 PM43 °FClear.6 mph76%30.12 "Hg10 mi
9:00 PM43 °FClear.5 mph76%30.12 "Hg10 mi
8:30 PM41 °FClear.3 mph81%30.15 "Hg10 mi
8:00 PM41 °FClear.6 mph81%30.15 "Hg10 mi
Weather by CustomWeather, © 2014

See weather overviewHow to use our weather pages